Location: Koszewko
(53.2876°N, 14.9061°E)
Time: 01:58:12
(UTC+00:00)

Meteor 2-20 - Pass Details

Date: 03 March 2021
Orbit: 940 x 958 km, 82.5° (Epoch: 11 April)

Event Time Altitude Azimuth Distance (km) Brightness Sun altitude
Rises 18:42:19 0° 349° (N) 3,623 7.8 -18.6°
Reaches altitude 10° 18:44:52 10° 354° (N) 2,677 7.1 -18.9°
Maximum altitude 18:50:55 60° 74° (ENE) 1,077 4.4 -19.8°
Enters shadow 18:54:06 29° 144° (SE) 1,685 5.3 -20.3°
